Weather History for Pemberton, BC

Change the Weather History Date:

Sunday, July 28, 2013

  Actual Average Record
Temperature  
Mean Temperature 69 °F -  
Max Temperature 87 °F - - ()
Min Temperature 51 °F - - ()
Cooling Degree Days 4    
Growing Degree Days 19 (Base 50)    
Moisture  
Dew Point 47 °F    
Average Humidity 54    
Maximum Humidity 93    
Minimum Humidity 15    
Precipitation  
Precipitation 0.00 in - - ()
Sea Level Pressure  
Sea Level Pressure 29.94 in    
Wind  
Wind Speed - ()    
Max Wind Speed -    
Max Gust Speed -    
T = Trace of Precipitation, MM = Missing Value Source: Averaged Metar Reports

Daily Weather History Graph

Daily Weather History Graph

Search for Another Location

Airport:

Trip Planner

Search our weather history database for the weather conditions in past years. The results will help you decide how hot, cold, wet, or windy it might be!

Date:

Astronomy

Jul. 28, 2013 Rise Set
Actual Time 5:34 AM PDT 8:59 PM PDT
Civil Twilight 4:54 AM PDT 9:39 PM PDT
Nautical Twilight 4:00 AM PDT 10:32 PM PDT
Astronomical Twilight 2:47 AM PDT 11:44 PM PDT
Moon 11:33 PM PDT (7/28) 1:11 PM PDT (7/28)
Length of Visible Light 16h 45m
Length of Day
15h 25m
Waning Gibbous, 60% of the Moon is Illuminated
Jul 28
Waning Gibbous
Jul 29
Last Quarter
Aug 6
New
Aug 14
First Quarter
Aug 20
Full

Hourly Weather History & Observations

Time (PDT) Temp. Dew Point Humidity Pressure Visibility Wind Dir Wind Speed Gust Speed Precip Events Conditions
12:00 AM 57.7 °F 51.8 °F 81% 29.95 in - North - - N/A   Unknown
1:00 AM 57.2 °F 52.0 °F 83% 29.96 in - North - - N/A   Unknown
2:00 AM 55.8 °F 51.6 °F 86% 29.96 in - North - - N/A   Unknown
3:00 AM 53.8 °F 50.5 °F 89% 29.96 in - North - - N/A   Unknown
4:00 AM 52.3 °F 49.8 °F 91% 29.98 in - North - - N/A   Unknown
5:00 AM 52 °F 49 °F 86% 29.98 in - Calm Calm - -  
5:00 AM 51.6 °F 49.3 °F 92% 29.98 in - North - - N/A   Unknown
6:00 AM 51.1 °F 49.1 °F 93% 29.99 in - North - - N/A   Unknown
7:00 AM 52.3 °F 50.0 °F 92% 30.00 in - North - - N/A   Unknown
8:00 AM 60.1 °F 48.9 °F 67% 30.01 in - North - - N/A   Unknown
9:00 AM 61.7 °F 49.1 °F 63% 30.00 in - North - - N/A   Unknown
10:00 AM 68.4 °F 48.7 °F 49% 29.99 in - North - - N/A   Unknown
11:00 AM 72 °F 47 °F 30% 29.95 in - Calm Calm - -  
11:00 AM 71.6 °F 47.1 °F 42% 29.95 in - North - - N/A   Unknown
12:00 PM 75.7 °F 46.0 °F 35% 29.93 in - North - - N/A   Unknown
1:00 PM 77.2 °F 44.4 °F 31% 29.92 in - North - - N/A   Unknown
2:00 PM 82.2 °F 43.7 °F 26% 29.90 in - North - - N/A   Unknown
3:00 PM 85.6 °F 42.6 °F 22% 29.88 in - North - - N/A   Unknown
4:00 PM 85.3 °F 40.1 °F 20% 29.88 in - North - - N/A   Unknown
5:00 PM 84 °F 44 °F 15% 29.87 in - Calm Calm - -  
5:00 PM 84.2 °F 43.5 °F 24% 29.87 in - North - - N/A   Unknown
6:00 PM 82.8 °F 40.6 °F 22% 29.88 in - North - - N/A   Unknown
7:00 PM 82.0 °F 40.5 °F 23% 29.88 in - North - - N/A   Unknown
8:00 PM 72.9 °F 44.4 °F 36% 29.90 in - North - - N/A   Unknown
9:00 PM 70.5 °F 49.6 °F 47% 29.91 in - North - - N/A   Unknown
10:00 PM 67.3 °F 52.5 °F 59% 29.93 in - North - - N/A   Unknown
11:00 PM 66 °F 51 °F 48% 29.93 in - Calm Calm - -  
11:00 PM 66.2 °F 50.7 °F 57% 29.93 in - North - - N/A   Unknown